Location: Unspecified
(44.4377°N, 88.0525°W)
Time: 09:41:51
(UTC-05:00)

Okean 3 - Pass Details

Date: 21 April 2019
Orbit: 576 x 602 km, 82.5° (Epoch: 23 May)

Event Time Altitude Azimuth Distance (km) Brightness Sun altitude
Exits shadow 02:32:39 26° 337° (NNW) 1,188 5.3 -29.2°
Drops below altitude 10° 02:34:46 10° 355° (N) 1,926 6.7 -29.0°
Sets 02:37:04 0° 2° (N) 2,827 7.9 -28.8°
